OpenBCM V1.08-5-g2f4a (Linux)

Packet Radio Mailbox

IZ3LSV

[San Dona' di P. JN]

 Login: GUEST





  
I0OJJ  > KEPS     03.08.25 01:27l 343 Lines 16344 Bytes #85 (0) @ AMSAT
BID : ORB25215.1
Read: GUEST
Subj: 2Line Orbital Elements 25215.AMSAT
Path: IZ3LSV<I3XTY<I0OJJ
Sent: 250803/0025z @:I0OJJ.ITA.EU [Rome] obcm1.08-10-g596e
From: I0OJJ @ I0OJJ.ITA.EU (Gustavo)
To:   KEPS @ AMSAT
X-Info: This message was generated automatically


QST de W1STR

AMSAT Orbital Elements for Amateur Satellites in TLE Format
From Orbital Analysis Office
New England Sci-Tech STEM Education Center
Natick, MA August 03, 2025
To all radio amateurs


These element sets describe the orbits of various satellites 
in use by the amateur radio community. For details see:
www.amsat.org/keplerian-elements-formats/

A daily update of element sets is available at:
www.amsat.org/tle/daily-bulletin.txt
or without bulletin text:
www.amsat.org/tle/dailytle.txt


AO-07
1 07530U 74089B   25214.53523382 -.00000037  00000-0  61705-4 0  9992
2 07530 101.9950 219.3758 0012392  21.0853 155.6794 12.53690509320588
UO-11
1 14781U 84021B   25214.47964709  .00001312  00000-0  14340-3 0  9998
2 14781  97.7582 179.7976 0008531 148.6384 211.5343 14.89516819209662
AO-27
1 22825U 93061C   25214.13410217  .00000086  00000-0  50039-4 0  9996
2 22825  98.7334 275.9481 0007610 322.2579  37.8068 14.30813994661372
FO-29
1 24278U 96046B   25214.50318040 -.00000020  00000-0  16065-4 0  9998
2 24278  98.5679 101.2863 0349544 202.7423 155.7904 13.53250982430061
NOAA-15
1 25338U 98030A   25214.73174791  .00000183  00000-0  92925-4 0  9997
2 25338  98.5339 238.5552 0009939 194.1564 165.9340 14.27005814416124
GO-32
1 25397U 98043D   25214.50209729  .00000078  00000-0  54018-4 0  9995
2 25397  98.9744 194.7572 0002287  69.9930 290.1494 14.24326380405965
ISS
1 25544U 98067A   25214.49566479  .00011663  00000-0  20985-3 0  9998
2 25544  51.6359  77.5427 0002034 138.8478 290.2759 15.50294044522345
NO-44
1 26931U 01043C   25214.50450911  .00000157  00000-0  89917-4 0  9999
2 26931  67.0527 348.4135 0006486 276.6804  83.3559 14.31756794244982
SO-50
1 27607U 02058C   25214.48044908  .00001052  00000-0  14738-3 0  9992
2 27607  64.5531  34.1374 0062042 322.4068  37.2708 14.81754367217215
CO-55
1 27844U 03031E   25214.50188512  .00000317  00000-0  15699-3 0  9990
2 27844  98.6769 222.0815 0010339  37.2820 322.9075 14.24031585146316
CO-57
1 27848U 03031J   25214.47557531  .00000267  00000-0  13690-3 0  9994
2 27848  98.6795 222.0201 0010518  53.2409 306.9733 14.23361329146031
RS-22
1 27939U 03042A   25214.84569927  .00001126  00000-0  18584-3 0  9992
2 27939  98.3327  25.6245 0011100 192.0236 302.5997 14.72461779168811
CO-58
1 28895U 05043F   25214.38823739  .00001743  00000-0  29099-3 0  9998
2 28895  98.2566 359.4353 0015435 133.4267 226.8226 14.71167523 54853
CO-65
1 32785U 08021C   25214.53876456  .00005901  00000-0  42107-3 0  9996
2 32785  97.7883 186.1275 0010443  37.9956 322.2004 15.04882476937197
CO-66
1 32791U 08021J   25214.58063127  .00012340  00000-0  57860-3 0  9998
2 32791  97.7307 195.8762 0003234  19.0026 341.1328 15.19825620938691
RS-30
1 32953U 08025A   25214.88623180  .00000039  00000-0  21246-3 0  9997
2 32953  82.5027 193.4062 0018028 289.1061  70.8067 12.43166797780277
NOAA-19
1 33591U 09005A   25214.85474307  .00000119  00000-0  87262-4 0  9997
2 33591  98.9943 279.8564 0013374 206.4589 153.5901 14.13397488849775
SRMSAT
1 37841U 11058D   25214.34236787  .00000409  00000-0  78302-4 0  9999
2 37841  19.9704 189.2065 0011534 296.7854 208.3424 14.11449094712719
ZACUBE-1
1 39417U 13066B   25214.39852681  .00003713  00000-0  32142-3 0  9995
2 39417  97.7818 171.1516 0042626 231.1397 128.6018 14.97074641632969
Delfi-N3xt
1 39428U 13066N   25214.33377613  .00005425  00000-0  54707-3 0  9991
2 39428  97.8309 131.3980 0083761 182.2346 177.8509 14.88918625627071
GOMX-1
1 39430U 13066Q   25214.75242584  .00001817  00000-0  28653-3 0  9990
2 39430  97.6791  70.0823 0132720  19.6846 340.9414 14.67829661623353
LO-74
1 39440U 13066AA  25214.39869488  .00005214  00000-0  52363-3 0  9999
2 39440  97.8504 158.6015 0061691   4.1958 355.9764 14.90293646629450
AO-73
1 39444U 13066AE  25214.81865332  .00005538  00000-0  40949-3 0  9990
2 39444  97.7862 176.9727 0040817 199.5637 160.4024 15.02948546632321
DTUSAT-2
1 40030U 14033W   25214.41641165  .00007691  00000-0  49215-3 0  9997
2 40030  98.0583 188.8718 0007801 230.7591 129.2944 15.08868610604516
EO-80
1 40032U 14033Y   25214.50021933  .00005606  00000-0  35926-3 0  9992
2 40032  98.0464 188.5398 0008968 166.7736 193.3728 15.08939569604504
LILACSAT-2
1 40908U 15049K   25214.82003437  .00011498  00000-0  28977-3 0  9990
2 40908  97.5052 236.5114 0007655 336.2442  23.8449 15.40022998546577
IO-86
1 40931U 15052B   25151.18580175  .00001241  00000-0  78118-4 0  9996
2 40931   6.0006  24.0987 0012733 338.8432  21.1169 14.78805930523047
Horyu-4
1 41340U 16012D   25214.86517849  .00022507  00000-0  56073-3 0  9994
2 41340  30.9956 126.3204 0007597 270.6606  89.3169 15.38965302521151
Lapan A3
1 41603U 16040E   25214.84906908  .00003175  00000-0  11097-3 0  9990
2 41603  97.1389 217.3405 0012811  78.6242 281.6438 15.30183149506083
CAS-2T
1 41847U 16066G   25214.19228593  .00000966  00000-0  14577-3 0  9994
2 41847  98.4178 288.1812 0345892  16.5016 344.7105 14.43629988458750
CAS-4B
1 42759U 17034B   25214.84561932  .00098679  00000-0  75091-3 0  9998
2 42759  43.0055 356.7829 0023076 310.6274  49.2587 15.70874173451117
CAS-4A
1 42761U 17034D   25214.82595838  .00102527  00000-0  71882-3 0  9993
2 42761  43.0093 353.3402 0024005 315.2501  44.6431 15.72751561451146
TechnoSat
1 42829U 17042E   25214.54523646  .00004189  00000-0  32280-3 0  9998
2 42829  97.3937  20.6721 0017702  97.1842 263.1397 15.02013168438824
AO-91
1 43017U 17073E   25214.17751165  .00009552  00000-0  48189-3 0  9994
2 43017  97.5183  83.5974 0169746 344.4998  15.1066 15.05568769417272
S-Net D
1 43186U 18014G   25214.30149596  .00004745  00000-0  27783-3 0  9997
2 43186  97.5560 116.6599 0010257  48.7920 311.4193 15.12262552410499
S-Net B
1 43187U 18014H   25214.30760244  .00004689  00000-0  27466-3 0  9992
2 43187  97.5566 116.6404 0010895  44.2473 315.9626 15.12243556410496
S-Net A
1 43188U 18014J   25214.30169977  .00004736  00000-0  27724-3 0  9999
2 43188  97.5573 116.7918 0010754  44.8704 315.3394 15.12267992410499
S-Net C
1 43189U 18014K   25214.31014276  .00004755  00000-0  27842-3 0  9994
2 43189  97.5592 116.8235 0012104  37.3654 322.8416 15.12240289409043
Ten-Koh
1 43677U 18084G   25214.47155369  .00002439  00000-0  19712-3 0  9993
2 43677  98.0846  28.8603 0008989  88.2820 271.9433 15.00786654368326
PO-101
1 43678U 18084H   25214.81204718  .00001711  00000-0  14817-3 0  9998
2 43678  98.1060  33.0218 0008631 103.7752 256.4431 14.98534420368501
QO-100
1 43700U 18090A   25214.26632789  .00000154  00000-0  00000-0 0  9999
2 43700   0.0142  90.2525 0001228  42.7448 299.7699  1.00274233 24478
MinXSS-2
1 43758U 18099A   25214.54402792  .00015585  00000-0  58639-3 0  9999
2 43758  97.4986 280.7974 0010261 330.8169  29.2495 15.27172014365206
AO-95
1 43770U 18099N   25214.58285190  .00009200  00000-0  45404-3 0  9991
2 43770  97.4879 272.0892 0010870  32.9458 327.2451 15.18067132364746
RANGE-A
1 43773U 18099R   25214.56730414  .00003912  00000-0  24759-3 0  9990
2 43773  97.4446 261.4067 0011297  15.2255 344.9312 15.09510257364369
MOVE-II
1 43780U 18099Y   25194.80194206  .15913345  26116-5  37118-3 0  9995
2 43780  97.4526 273.8800 0018736 270.1080  89.8075 16.44566529363241
SNUSat 2
1 43782U 18099AA  25214.57036359  .00007458  00000-0  39917-3 0  9999
2 43782  97.4561 268.3828 0010837 333.1645  26.9025 15.15277970364673
SnugLite
1 43784U 18099AC  25214.60112601  .00008420  00000-0  41241-3 0  9993
2 43784  97.4377 268.0880 0002561 355.9818   4.1395 15.18403541364838
ITASat 1
1 43786U 18099AE  25214.57128972  .00006609  00000-0  37168-3 0  9999
2 43786  97.4530 267.7315 0014485  26.0758 334.1200 15.13513945364620
EAGLET 1
1 43790U 18099AJ  25214.58523864  .00003531  00000-0  22424-3 0  9994
2 43790  97.4728 267.5186 0012000  12.1254 348.0262 15.09440361364219
ESEO
1 43792U 18099AL  25214.53860759  .00002269  00000-0  17370-3 0  9999
2 43792  97.4446 260.0041 0011744 342.9042  17.1786 15.02786049363920
CSIM
1 43793U 18099AM  25214.76840236  .01153758  75287-3  16952-2 0  9990
2 43793  97.4700 297.6093 0011608 276.1675  83.8283 16.05102149366221
JO-97
1 43803U 18099AX  25214.12443014  .00010940  00000-0  48358-3 0  9993
2 43803  97.4629 272.7484 0006065 325.9364  34.1482 15.21864851364916
Suomi 100
1 43804U 18099AY  25214.09600252  .00009238  00000-0  44068-3 0  9991
2 43804  97.4695 271.8579 0010955 327.1664  32.8888 15.19249897364824
ISAT
1 43879U 18111D   25214.29393312  .00022512  00000-0  73564-3 0  9999
2 43879  97.5905 129.9283 0008527  25.7232 334.4431 15.31713566361915
UWE-4
1 43880U 18111E   25214.81533942  .00014746  00000-0  55296-3 0  9996
2 43880  97.5852 128.5460 0012254  30.7821 329.4133 15.27277003359907
Sparrow
1 43881U 18111F   25214.29608339  .00023423  00000-0  73375-3 0  9992
2 43881  97.6059 133.0241 0008383  62.9919 297.2178 15.33062125362010
Prox-1
1 44339U 19036A   25214.81144876  .00010407  00000-0  12824-2 0  9996
2 44339  23.9969  65.3163 0007656 331.5100  28.4979 14.80893003326156
SONATE
1 44400U 19038Q   25185.47540524  .09032085  27445-5  31847-3 0  9995
2 44400  97.6609 216.4776 0012462 246.7970 113.2018 16.43248376333575
Taurus 1
1 44530U 19059C   25214.84734705  .00005648  00000-0  10305-2 0  9996
2 44530  98.6119 356.8512 0008840 220.5968 139.4576 14.66380281311890
Duchifat 3
1 44854U 19089C   25214.78181573  .00056763  00000-0  94431-3 0  9997
2 44854  36.9422   9.4953 0005494  24.5294 335.5724 15.50984465311350
TO-108
1 44881U 19093C   25214.84574867  .00000903  00000-0  11010-3 0  9998
2 44881  97.7901 289.3574 0014954  57.1341 303.1311 14.85694714304134
